Find Starlink 34710

NORAD ID: 65365 Int'l Des: 2025-190 Owner: SPXS Country: US Constellation: starlink operational
LEOCIRCULAR

当前视图

正在加载3D地球...

About Starlink 34710

Starlink 34710 (NORAD 65365) is a starlink constellation satellite (v2 mini) launched Aug 28, 2025 by SPXS of US. It operates in LEO, CIRCULAR orbit with a mass of 575.00 kg.

即将过境

Passes for default location (London). Set your location on the main map for personalized predictions.

高度历史

Loading altitude history...

两行轨道根数

1 65365U 25190Q 26229.03277423 .00026064 00000-0 77971-3 0 9993
2 65365 53.1587 142.7513 0001206 94.6975 265.4166 15.34406085 53844
Epoch: Aug 17, 2026 • Age: 16 hours

当前状态

高度 467.4 km
远地点 / 近地点 N/A
速度 7.64 km/s
星下点 49.04°N, 18.17°W
发射日期 Aug 28, 2025
运行时间 0.9 years
类型 internet

技术详情

分类 Payload
质量 575.00 kg
干质量 530.00 kg
总质量 575.00 kg
长度 0.30 m
直径 4.10 m
跨度 29.00 m
形状 Box + pan
制造商 SPXS
平台类型 Starlink V2MO
阶段状态 In Orbit
所有者/国家 SPXS/US

Most Searched